📊 Raw Sensor Data
Showing records 36001 to 36025 of 84,888 total
| ID | Distance (ft) | Battery V | Battery A | Int Temp (°F) | Int Humid (%) | Ext Temp (°F) | Solar V | RSSI | SNR | Time Stamp |
|---|---|---|---|---|---|---|---|---|---|---|
| 48900 | 15.5 | 3.91 | 0 | 99 | 41 | 89 | 5.10 | -70 | 7 | 08/11/2025 02:00 PM |
| 48899 | 15.5 | 3.91 | 5 | 97 | 41 | 90 | 5.20 | -70 | 8 | 08/11/2025 01:45 PM |
| 48898 | 15.5 | 3.91 | 5 | 97 | 41 | 90 | 5.20 | -70 | 8 | 08/11/2025 01:45 PM |
| 48897 | 15.6 | 3.91 | 0 | 96 | 41 | 87 | 5.10 | -70 | 8 | 08/11/2025 01:30 PM |
| 48896 | 15.5 | 3.91 | 0 | 95 | 41 | 89 | 5.10 | -69 | 7 | 08/11/2025 01:15 PM |
| 48895 | 15.5 | 4.10 | 5 | 93 | 42 | 87 | 5.10 | -71 | 7 | 08/11/2025 01:00 PM |
| 48894 | 15.6 | 3.91 | 6 | 91 | 42 | 86 | 5.10 | -71 | 7 | 08/11/2025 12:45 PM |
| 48893 | 15.6 | 3.91 | 0 | 90 | 42 | 83 | 5.10 | -69 | 8 | 08/11/2025 12:30 PM |
| 48892 | 15.6 | 3.91 | 6 | 88 | 42 | 85 | 5.10 | -70 | 8 | 08/11/2025 12:15 PM |
| 48891 | 15.6 | 3.91 | 6 | 87 | 42 | 85 | 5.10 | -70 | 8 | 08/11/2025 12:00 PM |
| 48890 | 15.6 | 4.08 | 6 | 86 | 42 | 85 | 5.10 | -70 | 7 | 08/11/2025 11:45 AM |
| 48889 | 15.6 | 3.91 | 6 | 84 | 42 | 84 | 5.10 | -70 | 8 | 08/11/2025 11:30 AM |
| 48888 | 15.6 | 3.91 | 0 | 82 | 43 | 81 | 5.10 | -71 | 8 | 08/11/2025 11:15 AM |
| 48887 | 15.6 | 3.93 | 0 | 81 | 43 | 81 | 5.10 | -70 | 8 | 08/11/2025 11:00 AM |
| 48886 | 15.6 | 3.91 | 0 | 80 | 42 | 77 | 5.10 | -70 | 8 | 08/11/2025 10:45 AM |
| 48885 | 15.7 | 3.91 | 0 | 79 | 42 | 81 | 5.10 | -71 | 8 | 08/11/2025 10:30 AM |
| 48884 | 15.7 | 3.91 | 5 | 76 | 42 | 74 | 5.10 | -70 | 7 | 08/11/2025 10:00 AM |
| 48883 | 15.7 | 3.91 | 5 | 75 | 42 | 80 | 5.10 | -69 | 8 | 08/11/2025 09:45 AM |
| 48882 | 15.6 | 3.91 | 0 | 73 | 43 | 75 | 5.10 | -69 | 8 | 08/11/2025 09:30 AM |
| 48881 | 15.6 | 4.10 | 0 | 73 | 43 | 76 | 5.10 | -69 | 8 | 08/11/2025 09:15 AM |
| 48880 | 15.6 | 3.91 | 5 | 71 | 43 | 74 | 5.10 | -71 | 7 | 08/11/2025 09:00 AM |
| 48879 | 15.6 | 4.01 | 5 | 70 | 43 | 74 | 5.10 | -70 | 7 | 08/11/2025 08:45 AM |
| 48878 | 15.6 | 3.96 | 5 | 68 | 43 | 72 | 5.10 | -70 | 8 | 08/11/2025 08:30 AM |
| 48877 | 15.6 | 3.90 | 0 | 67 | 43 | 72 | 5.10 | -70 | 7 | 08/11/2025 08:15 AM |
| 48876 | 15.6 | 3.90 | 0 | 66 | 43 | 70 | 5.10 | -69 | 8 | 08/11/2025 08:00 AM |